Starlink 33825

operational
NORAD ID: 63505 Int'l Des: 2025-071 Owner: SPXS Country: US Constellation: starlink
LEOCIRCULAR

Starlink 33825について

説明を読み込み中...

リアルタイム位置

3D地球を読み込み中...

次回通過

高度履歴

Altitude vs Time

uPlot chart will show altitude changes over time

軌道要素

1 63505U 25071N 25304.49877123 .00039806 00000-0 13511-2 0 9998
2 63505 53.1597 19.7534 0001532 98.1244 261.9930 15.30147901 32993
Epoch: Oct 31, 2025 • Age: 11 hours

現在のステータス

高度 480.8 km
速度 7.63 km/s
衛星直下点 53.30°N, 78.45°E
打ち上げ日 Apr 7, 2025
運用期間 0.5 years
タイプ internet

技術仕様

分類 Payload
質量 575.00 kg
乾燥質量 530.00 kg
総質量 575.00 kg
長さ 0.30 m
直径 4.10 m
スパン 29.00 m
形状 Box + pan
製造者 SPXS
バスタイプ Starlink V2MO
フェーズステータス In Orbit
所有者/国 SPXS/US

大規模コンステレーション

Loading constellations...